User: anonymous   Login
Location: Goheenville
(40.9070°N, 79.3720°W)
Time: 03:47:27
(UTC-04:00)
Language:

Cosmos 1727 Rocket - Orbit

View from above orbital plane
View from above orbital plane
View from above satellite
View from above satellite

Ground track
Ground track

The orbit data is extracted from the following two-line orbital elements,

1 16511U 86008B   14298.16116823  .00000111  00000-0  98427-4 0  6082
2 16511 082.9474 216.2842 0025625 101.0776 007.6230 13.75771773443442
Epoch (UTC): 25 October 2014 03:52:04
Eccentricity: 0.0025625
inclination: 82.9474°
perigee height: 960 km
apogee height: 998 km
right ascension of ascending node: 216.2842°
argument of perigee: 101.0776°
revolutions per day: 13.75771773
mean anomaly at epoch: 7.6230°
orbit number at epoch: 44344

The dashed part of the orbit path shows where the satellite is in the earth's shadow,  

DLR